This demonstration page uses our WeatherBlox Daily Observations layout. Learn more.

Left ArrowRight Arrow

Hourly Observations for February 5, 2019

Temp ( °F °C ) Dew Point ( °F °C ) Humidity (%) Winds ( mph kmh ) Pressure ( in mb ) Visibility ( mi km ) Precip ( " mm )
12:15 am 00:15 Cloudy 46 8 46 8 100 100 NW 9 15 29.94 1014 3 5 N/A
12:36 am 00:36 Cloudy 45 7 45 7 100 100 NW 7 11 29.95 1014 2 3 N/A
12:56 am 00:56 Cloudy 43 6 43 6 100 100 NNW 10 17 29.96 1015 1 2 N/A
1:15 am 01:15 Cloudy 41 5 41 5 100 100 NW 10 17 29.99 1015 2 3 N/A
1:36 am 01:36 Cloudy 39 4 39 4 100 100 NNW 9 15 29.99 1016 3 5 N/A
1:55 am 01:55 Cloudy 39 4 39 4 100 100 NW 7 11 29.99 1016 2 3 N/A
2:15 am 02:15 Cloudy 37 3 37 3 100 100 NW 9 15 30.01 1016 2 3 N/A
2:36 am 02:36 Cloudy 37 3 37 3 100 100 NW 8 13 30.02 1017 2 2 N/A
2:55 am 02:55 Cloudy 36 2 36 2 100 100 NW 9 15 30.04 1017 2 3 N/A
3:15 am 03:15 Cloudy 36 2 36 2 100 100 NNW 8 13 30.05 1018 2 3 N/A
3:36 am 03:36 Cloudy 34 1 34 1 100 100 NNW 12 19 30.06 1018 2 3 N/A
3:55 am 03:55 Cloudy 34 1 34 1 100 100 NNW 6 9 30.06 1018 3 4 N/A
4:15 am 04:15 Cloudy 34 1 34 1 100 100 NNW 9 15 30.06 1018 2 3 N/A
4:36 am 04:36 Cloudy 32 undefined 32 undefined 100 100 NNW 9 15 30.08 1018 2 2 N/A
4:55 am 04:55 Cloudy 32 undefined 32 undefined 100 100 NNW 7 11 30.08 1018 1 2 N/A
5:16 am 05:16 Cloudy 32 undefined 32 undefined 100 100 N 9 15 30.09 1019 1 2 N/A
5:36 am 05:36 Cloudy 32 undefined 32 undefined 100 100 N 9 15 30.09 1019 1 2 N/A
5:55 am 05:55 Cloudy 32 undefined 32 undefined 100 100 N 7 11 30.09 1019 1 2 N/A
6:16 am 06:16 Cloudy 32 undefined 32 undefined 100 100 N 7 11 30.10 1019 1 1 N/A
6:36 am 06:36 Cloudy 30 -1 30 -1 100 100 N 8 13 30.11 1020 1 2 N/A
6:55 am 06:55 Cloudy 30 -1 30 -1 100 100 N 5 7 30.11 1020 1 1 N/A
7:16 am 07:16 Cloudy 30 -1 30 -1 100 100 N 7 11 30.12 1020 1 1 N/A
7:35 am 07:35 Cloudy 30 -1 30 -1 100 100 N 8 13 30.13 1020 1 1 N/A
7:55 am 07:55 Cloudy 30 -1 30 -1 100 100 N 8 13 30.13 1020 1 2 N/A
8:16 am 08:16 Cloudy 30 -1 30 -1 100 100 NW 3 6 30.14 1021 1 1 N/A
8:35 am 08:35 Cloudy 30 -1 30 -1 100 100 NNW 8 13 30.14 1021 1 1 N/A
8:56 am 08:56 Cloudy 30 -1 30 -1 100 100 N 7 11 30.15 1021 1 1 N/A
9:16 am 09:16 Cloudy 30 -1 30 -1 100 100 N 9 15 30.17 1022 1 1 N/A
9:35 am 09:35 Cloudy 30 -1 30 -1 100 100 NNW 5 7 30.17 1022 1 1 N/A
9:56 am 09:56 Cloudy 30 -1 30 -1 100 100 N 7 11 30.17 1022 1 1 N/A
10:16 am 10:16 Cloudy 30 -1 30 -1 100 100 N 7 11 30.17 1022 1 1 N/A
10:35 am 10:35 Cloudy 30 -1 30 -1 100 100 NNE 7 11 30.17 1022 1 1 N/A
10:56 am 10:56 Cloudy 30 -1 30 -1 100 100 NNE 5 7 30.17 1022 1 2 N/A
11:15 am 11:15 Cloudy 30 -1 30 -1 100 100 NNE 7 11 30.17 1022 1 2 N/A
11:36 am 11:36 Cloudy 32 undefined 32 undefined 100 100 NE 6 9 30.18 1022 1 1 N/A
11:55 am 11:55 Cloudy 32 undefined 32 undefined 100 100 NE 6 9 30.19 1022 1 2 N/A
12:15 pm 12:15 Cloudy 32 undefined 32 undefined 100 100 NNE 6 9 30.19 1022 1 2 N/A
12:36 pm 12:36 Cloudy 32 undefined 32 undefined 100 100 ENE 5 7 30.19 1022 3 4 N/A
12:56 pm 12:56 Cloudy 32 undefined 32 undefined 100 100 NE 3 6 30.17 1022 3 4 N/A
1:15 pm 13:15 Cloudy 32 undefined 32 undefined 100 100 E 5 7 30.16 1021 2 3 N/A
1:36 pm 13:36 Cloudy 32 undefined 32 undefined 100 100 E 7 11 30.15 1021 3 4 N/A
1:55 pm 13:55 Cloudy 34 1 34 1 100 100 ENE 5 7 30.13 1020 3 4 N/A
2:16 pm 14:16 Cloudy 34 1 34 1 100 100 E 5 7 30.13 1020 3 4 N/A
2:36 pm 14:36 Cloudy 34 1 34 1 100 100 ENE 8 13 30.12 1020 3 5 N/A
2:55 pm 14:55 Cloudy 34 1 34 1 100 100 ENE 5 7 30.12 1020 4 6 N/A
3:16 pm 15:16 Cloudy 36 2 36 2 100 100 ENE 7 11 30.11 1020 4 6 N/A
3:36 pm 15:36 Cloudy 36 2 36 2 100 100 ENE 8 13 30.11 1020 4 6 N/A
3:55 pm 15:55 Cloudy 36 2 36 2 100 100 ENE 8 13 30.11 1020 4 6 N/A
4:16 pm 16:16 Cloudy 36 2 36 2 100 100 ENE 7 11 30.11 1020 3 5 N/A
4:36 pm 16:36 Cloudy 36 2 36 2 100 100 ENE 7 11 30.10 1019 4 6 N/A
4:55 pm 16:55 Cloudy 36 2 36 2 100 100 ENE 7 11 30.10 1019 3 5 N/A
5:16 pm 17:16 Cloudy 36 2 36 2 100 100 ENE 6 9 30.10 1019 3 4 N/A
5:36 pm 17:36 Cloudy 36 2 36 2 100 100 ENE 7 11 30.10 1019 3 4 N/A
5:55 pm 17:55 Cloudy 36 2 36 2 100 100 E 5 7 30.10 1019 1 2 N/A
6:16 pm 18:16 Cloudy 36 2 36 2 100 100 E 6 9 30.10 1019 1 2 N/A
6:35 pm 18:35 Cloudy 36 2 36 2 100 100 E 6 9 30.10 1019 2 3 N/A
6:55 pm 18:55 Cloudy 36 2 36 2 100 100 ENE 6 9 30.09 1019 2 3 N/A
7:16 pm 19:16 Cloudy 36 2 36 2 100 100 E 7 11 30.09 1019 1 2 N/A
7:35 pm 19:35 Cloudy 36 2 36 2 100 100 E 7 11 30.08 1019 2 2 N/A
7:55 pm 19:55 Cloudy 36 2 36 2 100 100 E 9 15 30.07 1018 2 2 N/A
8:16 pm 20:16 Cloudy 36 2 36 2 100 100 E 8 13 30.06 1018 2 3 N/A
8:35 pm 20:35 Cloudy 36 2 36 2 100 100 ESE 8 13 30.06 1018 2 3 N/A
8:56 pm 20:56 Cloudy 36 2 36 2 100 100 E 6 9 30.05 1018 2 3 N/A
9:16 pm 21:16 Cloudy 37 3 37 3 100 100 E 7 11 30.03 1017 2 3 N/A
9:35 pm 21:35 Cloudy 37 3 37 3 100 100 E 5 7 30.04 1017 2 3 N/A
9:56 pm 21:56 Cloudy 37 3 37 3 100 100 ESE 5 7 30.03 1017 3 5 N/A
10:16 pm 22:16 Cloudy 37 3 37 3 100 100 N N/A 30.03 1017 4 6 N/A
10:35 pm 22:35 Cloudy 37 3 37 3 100 100 SE 5 7 30.02 1017 4 6 N/A
10:56 pm 22:56 Cloudy 37 3 37 3 100 100 SE 6 9 30.01 1016 3 5 N/A
11:16 pm 23:16 Cloudy 37 3 37 3 100 100 ESE 6 9 30.00 1016 3 5 N/A
11:35 pm 23:35 Cloudy 39 4 39 4 100 100 SE 6 9 29.99 1016 3 5 N/A
11:56 pm 23:56 Cloudy 39 4 39 4 100 100 SE 8 13 29.98 1015 3 4 N/A

Powered by AerisWeather